Location: Newark
(46.3833°N, 6.2000°E)
Time: 02:17:44
(UTC+00:00)

N. Korean satellite - Pass Details

Date: 06 March 2020
Orbit: 454 x 507 km, 97.2° (Epoch: 06 April)

Event Time Altitude Azimuth Distance (km) Brightness Sun altitude
Rises 05:22:22 0° 13° (NNE) 2,607 10.5 -8.1°
Reaches altitude 10° 05:24:29 10° 14° (NNE) 1,711 9.5 -7.7°
Maximum altitude 05:28:10 80° 100° (E) 506 6.8 -7.1°
Drops below altitude 10° 05:31:46 10° 190° (S) 1,667 9.2 -6.5°
Sets 05:33:48 0° 191° (SSW) 2,533 10.1 -6.1°
